Regional Weather Roundup
Issued by NWS Sioux Falls, SD

Home | Current Version | Previous Version | Graphics & Text | Print | Product List | Glossary Off
Versions: 1 2 3 4 5 6 7 8 9 10 11 12 13 14 15 16 17 18 19 20 21 22 23 24 25 26 27 28 29 30 31 32 33 34 35 36 37 38 39 40 41 42 43 44 45 46 47 48 49 50

000
ASUS43 KFSD 280102
RWRFSD

WEATHER ROUNDUP FOR SE SOUTH DAKOTA/SW MINNESOTA/NW IOWA
NATIONAL WEATHER SERVICE SIOUX FALLS SD
800 PM CDT THU APR 27 2017

NOTE: "FAIR" INDICATES FEW OR NO CLOUDS BELOW 12,000 FEET WITH NO
SIGNIFICANT WEATHER AND OR OBSTRUCTIONS TO VISIBILITY.


SDZ038>040-050-052>070-280200-
SOUTHEAST SOUTH DAKOTA

CITY           SKY/WX    TMP DP  RH WIND       PRES   REMARKS
BROOKINGS      CLEAR     40  27  59 N13       29.74R
CHAMBERLAIN    CLEAR     51  34  52 NE3       29.71R
HURON          CLEAR     45  29  53 NE8       29.73R
MADISON        FAIR      43  28  56 N12       29.73R
MITCHELL       CLEAR     48  30  49 NE8       29.74R
SIOUX FALLS    PTCLDY    46  32  58 N6        29.73R
WINNER         FAIR      49  33  54 E8        29.69R
YANKTON        CLEAR     50  30  46 N5        29.73R
$$

MNZ071-072-080-081-089-090-097-098-280200-
SOUTHWEST MINNESOTA

CITY           SKY/WX    TMP DP  RH WIND       PRES   REMARKS
FAIRMONT       CLOUDY    37  28  70 NW13      29.76R
JACKSON        PTCLDY    36  30  80 N5        29.75R
LUVERNE        CLEAR     45  30  57 N6        29.73R
MARSHALL       CLEAR     37  28  70 N14       29.76R
MONTEVIDEO     CLOUDY    36  28  75 N9        29.76R
PIPESTONE      CLEAR     43  27  52 NE8       29.72R
REDWOOD FALLS  CLOUDY    36  26  67 NW8       29.75R
TRACY          PTCLDY    38  30  74 N13       29.76R
WINDOM         CLEAR     36  28  75 N10       29.75R
WORTHINGTON    PTCLDY    39  31  72 N8        29.74R
$$

IAZ001>003-012>014-020>022-031-032-NEZ013-014-SDZ071-280200-
NORTHWEST IOWA

CITY           SKY/WX    TMP DP  RH WIND       PRES   REMARKS
CHEROKEE       CLEAR     45  36  71 E3        29.74R
DENISON        CLEAR     50  36  57 N5        29.75R
ESTHERVILLE    CLOUDY    38  32  79 N8        29.74R
LE MARS        CLEAR     50  34  53 CALM      29.74R
ORANGE CITY    CLEAR     46  36  66 NW3       29.73R
SHELDON        CLEAR     45  34  65 NE7       29.72R
SIOUX CITY     CLEAR     51  36  56 N5        29.74R
SPENCER        CLEAR     42  32  67 N5        29.74R
STORM LAKE     CLEAR     43  34  70 N6        29.74R
$$

ABBREVIATIONS USED IN REMARKS
   TC - TEMPERATURE IN CELSIUS
  WCI - WIND CHILL INDEX
   HX - HEAT INDEX
  VSB - VISIBILITY





USA.gov is the U.S. government's official web portal to all federal, state and local government web resources and services.